Regional Weather Roundup
Issued by NWS

Home | Current Version | Previous Version | Graphics & Text | Print | Product List | Glossary On
Versions: 1 2 3 4 5 6 7 8 9 10 11 12 13 14 15 16 17 18 19 20 21 22 23 24 25 26 27 28 29 30 31 32 33 34 35 36 37 38 39 40 41 42 43 44 45 46 47 48 49 50
000
ASUS43 KTOP 301659
RWRKS

WEATHER ROUNDUP FOR KANSAS
NATIONAL WEATHER SERVICE GOODLAND KS
1200 PM CDT FRI SEP 30 2016

NOTE:  "FAIR" INDICATES FEW OR NO CLOUDS BELOW 12,000 FEET WITH NO
SIGNIFICANT WEATHER AND/OR OBSTRUCTIONS TO VISIBILITY.

KSZ001>006-013>018-027>032-041>047-301800-
NORTHWEST KANSAS

CITY           SKY/WX    TMP DP  RH WIND       PRES   REMARKS
GOODLAND       MOSUNNY   64  46  52 SE18G26   30.20F
HAYS           SUNNY     66  45  45 S10       30.26S
HILL CITY      SUNNY     65  50  58 SE9       30.26F
RUSSELL        SUNNY     66  50  56 SE9       30.24F
$$

KSZ061>065-074>080-084>089-301800-
SOUTHWEST KANSAS

CITY           SKY/WX    TMP DP  RH WIND       PRES   REMARKS
DODGE CITY     SUNNY     68  46  45 S13       30.25F
ELKHART          N/A     71  48  43 S14         N/A
GARDEN CITY    MOSUNNY   67  46  47 S15       30.22F
GREAT BEND     SUNNY     66  45  45 SE10      30.25F
LIBERAL        SUNNY     72  48  43 S15       30.22F
$$

KSZ066>073-081>083-090>101-301800-
SOUTHEAST KANSAS

CITY           SKY/WX    TMP DP  RH WIND       PRES   REMARKS
CHANUTE        SUNNY     71  54  54 VRB3      30.23F
COFFEYVILLE    SUNNY     72  53  51 N7        30.22F
HUTCHINSON     SUNNY     68  47  46 S3        30.25F
MEDICINE LODGE   N/A     66  47  50 VRB3      30.25F
NEWTON         SUNNY     68  49  50 CALM      30.26F
PARSONS        SUNNY     72  53  51 VRB3      30.24F
WICHITA INTL   MOSUNNY   70  47  43 CALM      30.24F
WICHITA JABRA  SUNNY     68  49  50 NE6       30.24F
WICHITA MCCONL SUNNY     68  49  50 VRB1      30.24F
WINFIELD       SUNNY     70  50  49 N3        30.25F
$$

KSZ007>012-019>026-033>040-048>060-102>105-301800-
NORTHEAST KANSAS

CITY           SKY/WX    TMP DP  RH WIND       PRES   REMARKS
CONCORDIA      SUNNY     68  47  46 E6        30.26F
EMPORIA        SUNNY     70  52  52 N5        30.24F
LAWRENCE       SUNNY     71  56  58 MISG      30.23F
MANHATTAN      SUNNY     69  54  58 CALM      30.25F
OLATHE IND     SUNNY     69  55  60 VRB7      30.24F
OLATHE EXE     MOSUNNY   69  53  56 N7        30.23F
SALINA         SUNNY     69  49  48 VRB3      30.26F
TOPEKA BILLARD SUNNY     69  55  60 N6        30.24F
TOPEKA FORBES  SUNNY     70  54  56 NW6       30.25F
$$



USA.gov is the U.S. government's official web portal to all federal, state and local government web resources and services.